Location: Centerville
(32.8776°N, 96.6203°W)
Time: 00:06:30
(UTC+00:00)

SL-16 R/B - Pass Details

Date: 17 June 2021
Orbit: 843 x 845 km, 71.0° (Epoch: 27 July)

Event Time Altitude Azimuth Distance (km) Brightness Sun altitude
Rises 02:39:28 0° 194° (SSW) 3,382 5.1 -11.8°
Reaches altitude 10° 02:41:54 10° 193° (SSW) 2,451 4.4 -12.2°
Maximum altitude 02:47:31 75° 109° (ESE) 872 2.1 -13.1°
Drops below altitude 10° 02:53:10 10° 24° (NNE) 2,466 4.8 -14.0°
Sets 02:55:37 0° 23° (NNE) 3,405 5.6 -14.4°
